Regional Weather Roundup
Issued by NWS

Home | Current Version | Previous Version | Graphics & Text | Print | Product List | Glossary On
Versions: 1 2 3 4 5 6 7 8 9 10 11 12 13 14 15 16 17 18 19 20 21 22 23 24 25 26 27 28 29 30 31 32 33 34 35 36 37 38 39 40 41 42 43 44 45 46 47 48 49 50
000
ASUS43 KIND 270859
RWRIN

WEATHER ROUNDUP FOR INDIANA
NATIONAL WEATHER SERVICE INDIANAPOLIS IN
400 AM EST FRI FEB 27 2015

NOTE: "FAIR" INDICATES FEW OR NO CLOUDS BELOW 12,000 FEET WITH NO
SIGNIFICANT WEATHER AND/OR OBSTRUCTIONS TO VISIBILITY.

* - STATION DOES NOT REPORT WEATHER SUCH AS PRECIPITATION OR FOG.

+ - STATION NOT QUALITY CONTROLLED BY THE NATIONAL WEATHER SERVICE.
    USE DATA WITH CAUTION...ESPECIALLY DEWPOINT AND RELATIVE
    HUMIDITY OBSERVATIONS.

INZ001>003-010>013-019-020-271000-
NORTHWEST INDIANA

CITY           SKY/WX    TMP DP  RH WIND       PRES   REMARKS
GARY /AIRPORT/ CLOUDY     9  -5  53 W8        30.46R WCI  -4
KNOX *+          N/A      3 -13  47 SW5       30.43R WCI  -6
MONTICELLO +   CLEAR     -8 -12  84 W3        30.45R
VALPARAISO     NOT AVBL

$$

LMZ046-743>745-271000-
SOUTHERN LAKE MICHIGAN

STATION/POSITION TIME  TEMP WIND        PRES
                       AIR  DIR/SP/G
                 (UTC) (F)  (DEG/KT/KT) (MB)
MICHIGAN CITY    0800   10   40/  5/  6   N/A

$$

INZ004-005-014>016-021>024-271000-
NORTH CENTRAL INDIANA

CITY           SKY/WX    TMP DP  RH WIND       PRES   REMARKS
GOSHEN         CLEAR     -8 -16  67 CALM      30.41R
SOUTH BEND     PTCLDY    -1  -9  68 CALM      30.43R

$$

INZ006>009-017-018-025>027-271000-
NORTHEAST INDIANA

CITY           SKY/WX    TMP DP  RH WIND       PRES   REMARKS
ANGOLA *+      CLEAR    -13 -18  77 CALM      30.38R
FORT WAYNE     PTCLDY    -3  -9  75 NW5       30.41R WCI -13

$$

INZ028-029-035-036-043>045-051>053-271000-
WEST CENTRAL INDIANA

CITY           SKY/WX    TMP DP  RH WIND       PRES   REMARKS
CRAWFORDSVL +  CLOUDY     3  -4  72 W5        30.45S WCI  -6
GREENCASTLE +  CLOUDY     7   1  78 CALM      30.45S
LAFAYETTE      PTCLDY     3  -4  72 W5        30.47R WCI  -6
TERRE HAUTE    MOCLDY     8   1  73 NW3       30.49R

$$

INZ030>032-037>040-046>048-054>057-064-065-271000-
CENTRAL INDIANA

CITY           SKY/WX    TMP DP  RH WIND       PRES   REMARKS
FRANKFORT +    MOCLDY    -3  -6  85 SW7       30.45R WCI -16
GREENWOOD *+   CLEAR      5  -2  72 W3        30.44R
INDIANAPOLIS   MOCLDY     4   0  83 NW6       30.43R WCI  -7
-EAGLE CREEK   CLOUDY     6   3  87 NW6       30.43R WCI  -4
KOKOMO *+      CLEAR      3  -2  78 W8        30.42S WCI -10
MT COMFORT *+  CLEAR      0  -8  71 CALM      30.43R
SHELBYVILLE    CLEAR      2  -3  80 NW5       30.43R WCI  -8
ZIONSVILLE +   PTCLDY     1  -4  79 W3        30.43S

$$

INZ033-034-041-042-049-050-058-059-271000-
EAST CENTRAL INDIANA

CITY           SKY/WX    TMP DP  RH WIND       PRES   REMARKS
MUNCIE         CLEAR      2  -3  80 W3        30.41R

$$

INZ060-061-067>069-081>083-085>088-271000-
SOUTHWEST INDIANA

CITY           SKY/WX    TMP DP  RH WIND       PRES   REMARKS
EVANSVILLE     CLOUDY    17   8  67 NW3       30.51R
HUNTINGBURG *+ CLEAR     12   3  67 N7        30.49R WCI   2

$$

INZ062-063-066-070>080-084-089>092-271000-
SOUTH CENTRAL AND SOUTHEAST INDIANA

CITY           SKY/WX    TMP DP  RH WIND       PRES   REMARKS
BLOOMINGTON    MOCLDY    -4  -7  87 CALM      30.44R
SEYMOUR +      CLEAR      5   0  78 NW6       30.46R WCI  -6

$$



USA.gov is the U.S. government's official web portal to all federal, state and local government web resources and services.